GW0126 Weather Reports


Display with metric or nautical units.
time (UTC)temp
F
wind
direction
speed
MPH
gust
MPH
rain 1hr
in
rain 24hr
in
rain mn
in
humidity
%
barometer
mb
20260508135741 57 257 0.0 1.0 0.00 0.00 0.00 63 1020.0
20260508134211 57 237 0.0 1.0 0.00 0.00 0.00 63 1020.1
20260508133701 57 238 0.0 0.0 0.00 0.00 0.00 63 1020.0
20260508133151 57 238 0.0 1.0 0.00 0.00 0.00 64 1020.2
20260508131621 57 216 0.0 0.0 0.00 0.00 0.00 61 1020.2
20260508131150 58 209 0.0 0.0 0.00 0.00 0.00 62 1020.3
20260508130601 58 201 0.0 0.0 0.00 0.00 0.00 60 1020.0
20260508130051 58 258 0.0 1.0 0.00 0.00 0.00 61 1020.1
20260508125706 59 258 1.0 2.0 0.00 0.00 0.00 59 1020.3
20260508124521 59 175 0.0 1.0 0.00 0.00 0.00 62 1020.4
20260508124011 58 211 1.0 1.0 0.00 0.00 0.00 62 1020.1
20260508123539 58 208 0.0 0.0 0.00 0.00 0.00 62 1020.5
20260508122441 58 260 0.0 2.0 0.00 0.00 0.00 59 1020.3
20260508121931 59 215 0.0 0.0 0.00 0.00 0.00 60 1020.3
20260508121459 59 209 0.0 1.0 0.00 0.00 0.00 60 1020.3
20260508120949 59 242 1.0 2.0 0.00 0.00 0.00 58 1020.3
20260508115341 58 259 1.0 2.0 0.00 0.00 0.00 60 1020.4
20260508114834 58 203 1.0 2.0 0.00 0.00 0.00 61 1020.3
20260508114321 58 196 0.0 1.0 0.00 0.00 0.00 61 1020.4
20260508113849 60 234 1.0 1.0 0.00 0.00 0.00 60 1020.2
20260508113301 60 185 0.0 1.0 0.00 0.00 0.00 57 1020.6
20260508112828 60 204 2.0 3.0 0.00 0.00 0.00 59 1020.6
20260508111734 60 177 2.0 3.0 0.00 0.00 0.00 58 1020.3
20260508111220 59 178 0.0 2.0 0.00 0.00 0.00 59 1020.3
20260508110710 58 220 0.0 2.0 0.00 0.00 0.00 63 1020.6
20260508110201 57 187 1.0 2.0 0.00 0.00 0.00 61 1020.5
20260508104633 56 172 0.0 3.0 0.00 0.00 0.00 62 1020.7
20260508103648 57 263 1.0 3.0 0.00 0.00 0.00 64 1020.6
20260508103100 56 262 0.0 1.0 0.00 0.00 0.00 64 1020.7
20260508100000 56 224 0.0 1.0 0.00 0.00 0.00 65 1020.5
20260508095106 56 249 1.0 1.0 0.00 0.00 0.00 64 1020.5
20260508094508 55 196 1.0 1.0 0.00 0.00 0.00 64 1020.5
20260508092903 56 239 0.0 2.0 0.00 0.00 0.00 65 1020.4
20260508092350 55 173 0.0 1.0 0.00 0.00 0.00 66 1020.7
20260508091900 55 281 2.0 2.0 0.00 0.00 0.00 65 1020.7
20260508090804 55 285 1.0 3.0 0.00 0.00 0.00 65 1020.6
20260508090251 55 186 0.0 0.0 0.00 0.00 0.00 67 1020.5
20260508085741 54 203 0.0 1.0 0.00 0.00 0.00 68 1020.6
20260508085231 54 276 1.0 2.0 0.00 0.00 0.00 68 1020.4
20260508084211 54 259 0.0 0.0 0.00 0.00 0.00 67 1020.6
20260508083701 55 276 1.0 3.0 0.00 0.00 0.00 66 1020.3
20260508083154 56 249 0.0 1.0 0.00 0.00 0.00 64 1020.3
20260508082641 57 233 0.0 1.0 0.00 0.00 0.00 63 1020.4
20260508081621 59 183 0.0 2.0 0.00 0.00 0.00 58 1020.4
20260508080639 58 248 1.0 2.0 0.00 0.00 0.00 62 1020.2
20260508080051 58 195 1.0 3.0 0.00 0.00 0.00 60 1020.1
20260508074521 55 198 1.0 2.0 0.00 0.00 0.00 65 1020.3
20260508074052 56 185 2.0 3.0 0.00 0.00 0.00 66 1020.2
20260508073501 54 191 0.0 1.0 0.00 0.00 0.00 68 1020.2
20260508072954 53 263 0.0 1.0 0.00 0.00 0.00 74 1020.1
20260508072441 52 287 2.0 2.0 0.00 0.00 0.00 73 1020.1
20260508071421 51 188 0.0 0.0 0.00 0.00 0.00 75 1020.1
20260508070440 50 237 0.0 2.0 0.00 0.00 0.00 78 1020.0
20260508065851 50 247 1.0 1.0 0.00 0.00 0.00 78 1020.1
20260508064909 50 258 1.0 1.0 0.00 0.00 0.00 79 1019.8
20260508064324 49 202 0.0 1.0 0.00 0.00 0.00 81 1020.0
20260508063811 49 195 1.0 2.0 0.00 0.00 0.00 81 1019.8
20260508062240 48 284 1.0 2.0 0.00 0.00 0.00 83 1019.7
20260508061221 47 191 0.0 1.0 0.00 0.00 0.00 85 1019.6
20260508060326 46 189 0.0 2.0 0.00 0.00 0.00 86 1019.5
20260508055729 46 206 0.0 1.0 0.00 0.00 0.00 87 1019.3
20260508055144 45 224 0.0 1.0 0.00 0.00 0.00 88 1019.6
20260508054631 45 237 0.0 2.0 0.00 0.00 0.00 89 1019.5
20260508054120 44 266 1.0 2.0 0.00 0.00 0.00 89 1019.5
20260508053610 44 238 0.0 1.0 0.00 0.00 0.00 89 1019.3
20260508053101 45 233 0.0 1.0 0.00 0.00 0.00 89 1019.5
20260508052716 45 205 0.0 1.0 0.00 0.00 0.00 89 1019.5
20260508052040 45 210 0.0 0.0 0.00 0.00 0.00 89 1019.9
20260508051530 45 236 0.0 2.0 0.00 0.00 0.00 89 1019.7
20260508050510 44 237 1.0 2.0 0.00 0.00 0.00 90 1019.5
20260508050039 44 258 2.0 2.0 0.00 0.00 0.00 90 1019.7
20260508045450 44 225 0.0 0.0 0.00 0.00 0.00 91 1019.4
20260508045103 44 236 1.0 1.0 0.00 0.00 0.00 91 1019.5
20260508044430 44 218 0.0 0.0 0.00 0.00 0.00 91 1019.6
20260508043920 44 228 0.0 0.0 0.00 0.00 0.00 91 1019.4
20260508043410 44 231 0.0 0.0 0.00 0.00 0.00 91 1019.4
20260508042903 44 238 0.0 0.0 0.00 0.00 0.00 91 1019.3
20260508042350 44 238 0.0 1.0 0.00 0.00 0.00 91 1019.4
20260508041843 44 238 0.0 1.0 0.00 0.00 0.00 91 1019.6
20260508041409 44 235 0.0 1.0 0.00 0.00 0.00 91 1019.5
20260508040823 44 237 0.0 1.0 0.00 0.00 0.00 91 1019.4
20260508035800 44 222 0.0 0.0 0.00 0.00 0.00 91 1019.1
20260508035250 43 235 0.0 0.0 0.00 0.00 0.00 91 1019.3
20260508033720 44 235 0.0 1.0 0.00 0.00 0.00 91 1019.2
20260508033248 44 226 0.0 0.0 0.00 0.00 0.00 91 1019.2
20260508032700 44 221 0.0 0.0 0.00 0.00 0.00 91 1018.9
20260508032150 44 236 0.0 1.0 0.00 0.00 0.00 91 1019.2
20260508030110 44 236 0.0 1.0 0.00 0.00 0.00 91 1019.2
20260508025603 44 233 0.0 0.0 0.00 0.00 0.00 91 1019.1
20260508025128 44 234 0.0 0.0 0.00 0.00 0.00 91 1019.0
20260508024540 44 227 0.0 1.0 0.00 0.00 0.00 91 1019.0
20260508024030 44 240 0.0 1.0 0.00 0.00 0.00 91 1018.9
20260508023520 44 238 0.0 1.0 0.00 0.00 0.00 91 1019.1
20260508023010 44 237 0.0 1.0 0.00 0.00 0.00 91 1018.9
20260508022500 44 238 0.0 1.0 0.00 0.00 0.00 91 1019.0
20260508021950 44 225 0.0 0.0 0.00 0.00 0.00 91 1018.8
20260508021440 44 246 1.0 1.0 0.00 0.00 0.00 91 1019.0
20260508020420 44 246 0.0 1.0 0.00 0.00 0.00 92 1019.0
20260508015948 44 246 0.0 0.0 0.00 0.00 0.00 92 1019.2
20260508015400 44 246 0.0 0.0 0.00 0.00 0.00 92 1019.1
20260508014850 44 246 0.0 1.0 0.00 0.00 0.00 92 1019.0
20260508014340 44 246 0.0 0.0 0.00 0.00 0.00 93 1019.1
20260508013908 44 246 0.0 1.0 0.00 0.00 0.00 93 1018.9
20260508012810 44 246 0.0 0.0 0.00 0.00 0.00 94 1018.9
20260508012338 44 246 0.0 0.0 0.00 0.00 0.00 94 1018.8
20260508011750 43 246 0.0 0.0 0.00 0.00 0.00 94 1018.9
20260508011318 43 246 0.0 0.0 0.00 0.00 0.00 94 1018.8
20260508010220 43 246 0.0 0.0 0.00 0.00 0.00 94 1018.7
20260508005709 43 246 0.0 0.0 0.00 0.00 0.00 94 1018.9
20260508004650 43 246 0.0 0.0 0.00 0.00 0.00 94 1018.7
20260508003159 44 246 0.0 0.0 0.00 0.00 0.00 93 1018.6
20260508002610 44 246 0.0 0.0 0.00 0.00 0.00 93 1018.8
20260508002059 44 246 0.0 0.0 0.00 0.00 0.00 93 1018.8
20260508001040 44 246 0.0 1.0 0.00 0.00 0.00 93 1018.7
20260508000529 44 246 0.0 0.0 0.00 0.00 0.00 93 1018.5
20260507235038 44 246 0.0 0.0 0.00 0.00 0.00 91 1018.8
20260507233508 45 246 0.0 0.0 0.00 0.00 0.00 90 1018.7
20260507232922 45 246 0.0 0.0 0.00 0.00 0.00 90 1018.6
20260507232409 45 246 0.0 0.0 0.00 0.00 0.00 90 1018.9
20260507231859 45 246 0.0 0.0 0.00 0.00 0.00 90 1018.8
20260507225858 45 246 0.0 0.0 0.00 0.00 0.00 90 1018.9
20260507225347 46 246 0.0 0.0 0.00 0.00 0.00 90 1018.7
20260507224412 46 246 0.0 0.0 0.00 0.00 0.00 90 1018.7
20260507223739 46 246 0.0 0.0 0.00 0.00 0.00 90 1018.8
20260507222719 46 246 0.0 0.0 0.00 0.00 0.00 89 1018.6
20260507222209 46 246 0.0 0.0 0.00 0.00 0.00 89 1018.7
20260507221149 46 246 0.0 0.0 0.00 0.00 0.00 89 1018.5
20260507220129 46 246 0.0 0.0 0.00 0.00 0.00 89 1018.4
20260507215619 46 246 0.0 0.0 0.00 0.00 0.00 89 1018.4
20260507215147 46 246 0.0 0.0 0.00 0.00 0.00 89 1018.3
20260507214559 46 246 0.0 0.0 0.00 0.00 0.00 89 1018.2
20260507214049 46 246 0.0 0.0 0.00 0.00 0.00 89 1018.3
20260507213029 46 246 0.0 1.0 0.00 0.00 0.00 89 1018.5
20260507211459 46 246 0.0 0.0 0.00 0.00 0.00 89 1018.3
20260507210949 46 245 0.0 0.0 0.00 0.00 0.00 89 1018.2
20260507210439 47 245 0.0 0.0 0.00 0.00 0.00 89 1018.3
20260507205419 46 245 0.0 0.0 0.00 0.00 0.00 88 1018.2
20260507204909 46 245 0.0 0.0 0.00 0.00 0.00 88 1018.1
20260507203417 46 245 0.0 0.0 0.00 0.00 0.00 88 1018.0
20260507201809 46 245 0.0 0.0 0.00 0.00 0.00 87 1017.8
20260507201337 46 245 0.0 0.0 0.00 0.00 0.00 87 1017.8
20260507200749 47 245 0.0 0.0 0.00 0.00 0.00 86 1017.7
20260507200239 47 245 0.0 0.0 0.00 0.00 0.00 86 1017.6
20260507195807 47 246 0.0 0.0 0.00 0.00 0.00 85 1017.5
20260507195257 47 246 0.0 0.0 0.00 0.00 0.00 85 1017.8
20260507194237 47 245 0.0 1.0 0.00 0.00 0.00 84 1017.4
20260507193727 47 245 0.0 0.0 0.00 0.00 0.00 84 1017.7
20260507193139 48 242 0.0 1.0 0.00 0.00 0.00 83 1017.5
20260507192119 48 242 0.0 1.0 0.00 0.00 0.00 83 1017.3
20260507190117 49 221 0.0 1.0 0.00 0.00 0.00 82 1016.9
20260507185532 49 233 0.0 1.0 0.00 0.00 0.00 82 1016.9
20260507185019 49 235 0.0 1.0 0.00 0.00 0.00 83 1017.0
20260507183959 50 228 0.0 1.0 0.00 0.00 0.00 83 1016.8
20260507183448 50 207 0.0 0.0 0.00 0.00 0.00 84 1016.7
20260507182939 51 206 0.0 0.0 0.00 0.00 0.00 85 1016.9
20260507182429 51 207 0.0 0.0 0.00 0.00 0.00 85 1017.0
20260507181922 51 203 0.0 1.0 0.00 0.00 0.00 85 1016.8
20260507180859 51 184 0.0 0.0 0.00 0.00 0.00 84 1016.9
20260507175410 51 184 0.0 0.0 0.00 0.00 0.00 84 1016.7
20260507174818 51 184 0.0 0.0 0.00 0.00 0.00 83 1016.5
20260507174253 51 184 0.0 0.0 0.00 0.00 0.00 83 1016.5
20260507173218 51 184 0.0 0.0 0.00 0.00 0.00 83 1016.6
20260507172707 51 186 0.0 0.0 0.00 0.00 0.00 82 1016.5
20260507172157 51 186 0.0 0.0 0.00 0.00 0.00 81 1016.6
20260507170117 52 186 0.0 0.0 0.00 0.00 0.00 81 1016.0
20260507165607 52 187 0.0 0.0 0.00 0.00 0.00 82 1016.3
20260507164626 52 186 0.0 1.0 0.00 0.00 0.00 81 1016.1
20260507164118 52 185 0.0 1.0 0.00 0.00 0.00 81 1016.1
20260507163527 52 185 0.0 0.0 0.00 0.00 0.00 80 1016.2
20260507163021 52 186 0.0 1.0 0.00 0.00 0.00 81 1016.0
20260507162507 52 198 1.0 1.0 0.00 0.00 0.00 80 1015.9
20260507161957 52 213 0.0 1.0 0.00 0.00 0.00 79 1016.2
20260507160937 52 206 0.0 1.0 0.00 0.00 0.00 79 1016.0
20260507155958 53 196 1.0 1.0 0.00 0.00 0.00 79 1016.0
20260507154900 53 201 1.0 2.0 0.00 0.00 0.00 78 1016.0
20260507154347 53 201 0.0 1.0 0.00 0.00 0.00 78 1016.2
20260507153405 53 169 0.0 2.0 0.00 0.00 0.00 76 1015.8
20260507152820 53 202 1.0 2.0 0.00 0.00 0.00 76 1015.6
20260507152307 53 184 0.0 1.0 0.00 0.00 0.00 75 1015.8
20260507151836 53 176 1.0 1.0 0.00 0.00 0.00 74 1015.8
20260507150815 54 254 1.0 1.0 0.00 0.00 0.00 71 1015.6
20260507145207 53 256 0.0 1.0 0.00 0.00 0.00 72 1015.4
20260507144657 54 255 1.0 2.0 0.00 0.00 0.00 70 1015.2
20260507144147 54 273 2.0 3.0 0.00 0.00 0.00 72 1015.3
20260507143719 54 172 1.0 1.0 0.00 0.00 0.00 72 1015.2
20260507142617 53 260 1.0 1.0 0.00 0.00 0.00 74 1015.4
20260507141047 54 228 0.0 1.0 0.00 0.00 0.00 72 1015.3